When you browse on this site, cookies collect data to enhance your experience and personalize the content and advertising you see.
Visit our Privacy Policy to learn more. By continuing to use the site, you agree to this use of cookies and data.
  • In France
  • List of Countries
  • For 7 days
  • Water Temperature
  • Weather Map
  • Weather Widgets
  • user-avatar
    Login

    Hourly Weather Wenzhou

    Today, 21 October, Monday

    Time Temperature Precipitation Wind Pressure Humidity
    00:00 +19°C° 0 mm 1 mps 762 mmHg 79%
    01:00 +18°C° 0 mm 1 mps 762 mmHg 79%
    02:00 +18°C° 0 mm 1 mps 762 mmHg 81%
    03:00 +18°C° 0 mm 1 mps 762 mmHg 81%
    04:00 +16°C° 0 mm 1 mps 761 mmHg 81%
    05:00 +16°C° 0 mm 1 mps 761 mmHg 81%
    06:00 +18°C° 0 mm 1 mps 761 mmHg 76%
    07:00 +19°C° 0 mm 1 mps 762 mmHg 71%
    08:00 +21°C° 0 mm 1 mps 762 mmHg 67%
    09:00 +23°C° 0 mm 1 mps 762 mmHg 58%
    10:00 +25°C° 0 mm 1 mps 762 mmHg 50%
    11:00 +27°C° 0 mm 1 mps 762 mmHg 41%
    12:00 +27°C° 0 mm 1 mps 761 mmHg 39%
    13:00 +27°C° 0 mm 2 mps 760 mmHg 38%
    14:00 +28°C° 0 mm 2 mps 759 mmHg 36%
    15:00 +26°C° 0 mm 2 mps 760 mmHg 43%
    16:00 +25°C° 0 mm 2 mps 760 mmHg 51%
    17:00 +24°C° 0 mm 2 mps 760 mmHg 58%
    18:00 +21°C° 0 mm 2 mps 760 mmHg 63%
    19:00 +20°C° 0 mm 2 mps 760 mmHg 67%
    20:00 +20°C° 0 mm 1 mps 761 mmHg 71%
    21:00 +20°C° 0 mm 1 mps 761 mmHg 73%
    22:00 +20°C° 0 mm 1 mps 761 mmHg 74%
    23:00 +19°C° 0 mm 1 mps 761 mmHg 76%

    Tomorrow, 22 October, Tuesday

    Time Temperature Precipitation Wind Pressure Humidity
    00:00 +19°C° 0 mm 1 mps 761 mmHg 77%
    01:00 +19°C° 0 mm 1 mps 760 mmHg 78%
    02:00 +18°C° 0 mm 1 mps 760 mmHg 80%
    03:00 +18°C° 0 mm 1 mps 760 mmHg 80%
    04:00 +18°C° 0 mm 1 mps 760 mmHg 80%
    05:00 +18°C° 0 mm 1 mps 760 mmHg 81%
    06:00 +19°C° 0 mm 1 mps 760 mmHg 76%
    07:00 +20°C° 0 mm 1 mps 760 mmHg 72%
    08:00 +19°C° 0 mm 0 mps 761 mmHg 68%
    09:00 +23°C° 0 mm 1 mps 760 mmHg 60%
    10:00 +25°C° 0 mm 1 mps 760 mmHg 52%
    11:00 +27°C° 0 mm 1 mps 760 mmHg 44%
    12:00 +27°C° 0 mm 1 mps 759 mmHg 42%
    13:00 +27°C° 0 mm 2 mps 759 mmHg 40%
    14:00 +27°C° 0 mm 2 mps 759 mmHg 38%
    15:00 +26°C° 0 mm 2 mps 759 mmHg 46%
    16:00 +24°C° 0 mm 2 mps 759 mmHg 53%
    17:00 +23°C° 0 mm 2 mps 759 mmHg 61%
    18:00 +21°C° 0 mm 2 mps 759 mmHg 65%
    19:00 +20°C° 0 mm 2 mps 760 mmHg 70%
    20:00 +20°C° 0 mm 1 mps 760 mmHg 74%
    21:00 +20°C° 0 mm 1 mps 760 mmHg 75%
    22:00 +20°C° 0 mm 1 mps 760 mmHg 76%
    23:00 +20°C° 0 mm 1 mps 760 mmHg 77%

    Day after tomorrow, 23 October, Wednesday

    Time Temperature Precipitation Wind Pressure Humidity
    00:00 +20°C° 0 mm 1 mps 760 mmHg 78%
    01:00 +20°C° 0 mm 1 mps 760 mmHg 79%
    02:00 +19°C° 0 mm 1 mps 760 mmHg 79%
    03:00 +19°C° 0 mm 1 mps 760 mmHg 80%
    04:00 +19°C° 0 mm 1 mps 760 mmHg 80%
    05:00 +19°C° 0 mm 1 mps 760 mmHg 81%
    06:00 +20°C° 0 mm 1 mps 760 mmHg 77%
    07:00 +21°C° 0 mm 1 mps 760 mmHg 74%
    08:00 +22°C° 0 mm 1 mps 761 mmHg 70%
    09:00 +22°C° 0 mm 1 mps 761 mmHg 68%
    10:00 +23°C° 0 mm 1 mps 761 mmHg 65%
    11:00 +24°C° 0 mm 1 mps 761 mmHg 63%
    12:00 +24°C° 0 mm 1 mps 760 mmHg 57%
    13:00 +25°C° 0 mm 1 mps 760 mmHg 52%
    14:00 +26°C° 0 mm 1 mps 760 mmHg 47%
    15:00 +25°C° 0 mm 1 mps 760 mmHg 52%
    16:00 +24°C° 0 mm 1 mps 760 mmHg 57%
    17:00 +23°C° 0 mm 1 mps 760 mmHg 63%
    18:00 +23°C° 0 mm 1 mps 760 mmHg 65%
    19:00 +22°C° 0 mm 1 mps 760 mmHg 66%
    20:00 +22°C° 0 mm 1 mps 760 mmHg 68%
    21:00 +22°C° 0 mm 1 mps 761 mmHg 69%
    22:00 +21°C° 0 mm 1 mps 761 mmHg 69%
    23:00 +21°C° 0 mm 1 mps 761 mmHg 69%

    24 October, Thursday

    Time Temperature Precipitation Wind Pressure Humidity
    00:00 +21°C° 0 mm 1 mps 761 mmHg 70%
    01:00 +20°C° 0 mm 2 mps 760 mmHg 70%
    02:00 +19°C° 0 mm 2 mps 760 mmHg 71%
    03:00 +19°C° 0 mm 2 mps 760 mmHg 72%
    04:00 +19°C° 0 mm 2 mps 760 mmHg 73%
    05:00 +19°C° 0 mm 2 mps 761 mmHg 74%
    06:00 +19°C° 0 mm 2 mps 761 mmHg 72%
    07:00 +20°C° 0 mm 2 mps 761 mmHg 70%
    08:00 +21°C° 0 mm 2 mps 762 mmHg 68%
    09:00 +24°C° 0 mm 2 mps 762 mmHg 63%
    10:00 +25°C° 0 mm 2 mps 761 mmHg 57%
    11:00 +27°C° 0 mm 2 mps 761 mmHg 51%
    12:00 +27°C° 0 mm 2 mps 761 mmHg 51%
    13:00 +27°C° 0 mm 2 mps 761 mmHg 51%
    14:00 +27°C° 0 mm 2 mps 760 mmHg 50%
    15:00 +26°C° 0 mm 2 mps 760 mmHg 55%
    16:00 +26°C° 0 mm 2 mps 761 mmHg 60%
    17:00 +25°C° 0 mm 2 mps 761 mmHg 65%
    18:00 +24°C° 0 mm 2 mps 761 mmHg 67%
    19:00 +23°C° 0 mm 2 mps 761 mmHg 70%
    20:00 +21°C° 0 mm 2 mps 762 mmHg 73%
    21:00 +20°C° 0 mm 2 mps 762 mmHg 74%
    22:00 +20°C° 0 mm 2 mps 762 mmHg 75%
    23:00 +19°C° 0 mm 2 mps 762 mmHg 75%

    25 October, Friday

    Time Temperature Precipitation Wind Pressure Humidity
    00:00 +19°C° 0 mm 2 mps 762 mmHg 75%
    01:00 +19°C° 0 mm 2 mps 762 mmHg 75%
    02:00 +18°C° 0 mm 2 mps 762 mmHg 74%
    03:00 +18°C° 0 mm 2 mps 762 mmHg 75%
    04:00 +18°C° 0 mm 2 mps 762 mmHg 76%
    05:00 +18°C° 0 mm 2 mps 762 mmHg 77%
    06:00 +19°C° 0 mm 2 mps 762 mmHg 74%
    07:00 +20°C° 0 mm 2 mps 763 mmHg 71%
    08:00 +21°C° 0 mm 2 mps 763 mmHg 68%
    09:00 +24°C° 0 mm 2 mps 763 mmHg 60%
    10:00 +25°C° 0 mm 2 mps 763 mmHg 53%
    11:00 +27°C° 0 mm 2 mps 762 mmHg 45%
    12:00 +28°C° 0 mm 2 mps 762 mmHg 44%
    13:00 +28°C° 0 mm 2 mps 762 mmHg 43%
    14:00 +28°C° 0 mm 2 mps 761 mmHg 42%
    15:00 +27°C° 0 mm 2 mps 761 mmHg 47%
    16:00 +26°C° 0 mm 2 mps 762 mmHg 53%
    17:00 +25°C° 0 mm 2 mps 762 mmHg 59%
    18:00 +24°C° 0 mm 2 mps 762 mmHg 62%
    19:00 +23°C° 0 mm 2 mps 763 mmHg 66%
    20:00 +21°C° 0 mm 2 mps 763 mmHg 69%
    21:00 +20°C° 0 mm 2 mps 764 mmHg 71%
    22:00 +20°C° 0 mm 2 mps 764 mmHg 73%
    23:00 +20°C° 0 mm 2 mps 764 mmHg 74%

    26 October, Saturday

    Time Temperature Precipitation Wind Pressure Humidity
    00:00 +20°C° 0 mm 1 mps 763 mmHg 75%
    01:00 +20°C° 0 mm 1 mps 763 mmHg 76%
    02:00 +20°C° 0 mm 1 mps 763 mmHg 76%
    03:00 +20°C° 0 mm 1 mps 763 mmHg 77%
    04:00 +19°C° 0 mm 1 mps 763 mmHg 78%
    05:00 +19°C° 0 mm 1 mps 763 mmHg 78%
    06:00 +20°C° 0 mm 1 mps 763 mmHg 75%
    07:00 +21°C° 0 mm 1 mps 764 mmHg 73%
    08:00 +22°C° 0 mm 1 mps 764 mmHg 70%
    09:00 +23°C° 0 mm 2 mps 764 mmHg 62%
    10:00 +25°C° 0 mm 2 mps 764 mmHg 54%
    11:00 +26°C° 0 mm 2 mps 764 mmHg 46%
    12:00 +27°C° 0 mm 3 mps 764 mmHg 43%
    13:00 +27°C° 0 mm 3 mps 763 mmHg 41%
    14:00 +27°C° 0 mm 3 mps 763 mmHg 39%
    15:00 +26°C° 0 mm 3 mps 763 mmHg 45%
    16:00 +25°C° 0 mm 3 mps 763 mmHg 51%
    17:00 +24°C° 0 mm 3 mps 763 mmHg 57%
    18:00 +23°C° 0 mm 2 mps 763 mmHg 61%
    19:00 +21°C° 0 mm 2 mps 763 mmHg 66%
    20:00 +20°C° 0 mm 2 mps 764 mmHg 70%
    21:00 +20°C° 0 mm 2 mps 764 mmHg 72%
    22:00 +19°C° 0 mm 2 mps 764 mmHg 74%
    23:00 +19°C° 0 mm 2 mps 764 mmHg 77%

    27 October, Sunday

    Time Temperature Precipitation Wind Pressure Humidity
    00:00 +19°C° 0 mm 1 mps 763 mmHg 77%
    01:00 +19°C° 0 mm 1 mps 763 mmHg 78%
    02:00 +19°C° 0 mm 1 mps 763 mmHg 79%
    03:00 +19°C° 0 mm 1 mps 763 mmHg 79%
    04:00 +18°C° 0 mm 1 mps 763 mmHg 79%
    05:00 +18°C° 0 mm 1 mps 763 mmHg 79%
    06:00 +19°C° 0 mm 1 mps 763 mmHg 75%
    07:00 +20°C° 0 mm 1 mps 763 mmHg 72%
    08:00 +21°C° 0 mm 1 mps 764 mmHg 68%
    09:00 +23°C° 0 mm 1 mps 763 mmHg 61%
    10:00 +25°C° 0 mm 1 mps 763 mmHg 55%
    11:00 +27°C° 0 mm 1 mps 763 mmHg 48%
    12:00 +27°C° 0 mm 1 mps 762 mmHg 48%
    13:00 +27°C° 0 mm 1 mps 762 mmHg 48%
    14:00 +27°C° 0 mm 1 mps 761 mmHg 47%
    15:00 +25°C° 0 mm 2 mps 761 mmHg 53%
    16:00 +24°C° 0 mm 2 mps 761 mmHg 59%
    17:00 +23°C° 0 mm 2 mps 761 mmHg 65%
    18:00 +21°C° 0 mm 2 mps 762 mmHg 68%
    19:00 +20°C° 0 mm 2 mps 762 mmHg 70%
    20:00 +20°C° 0 mm 1 mps 762 mmHg 73%
    21:00 +20°C° 0 mm 1 mps 762 mmHg 74%
    22:00 +20°C° 0 mm 1 mps 762 mmHg 74%
    23:00 +19°C° 0 mm 1 mps 762 mmHg 75%
    Show more